Location: Neuvy Saint Sepulchre
(46.5953°N, 1.8122°E)
Time: 15:41:02
(UTC+02:00)

ISS - Pass Details

Date: 06 May 2026
Orbit: 414 x 424 km, 51.6° (Epoch: 21 May)

Event Time Altitude Azimuth Distance (km) Brightness Sun altitude
Exits shadow 02:32:12 23° 42° (NE) 941 -1.4 -26.2°
Drops below altitude 10° 02:33:52 10° 63° (ENE) 1,499 -0.5 -26.1°
Sets 02:36:06 0° 73° (ENE) 2,365 0.4 -26.0°
